Charleston, WV

6:53 AM EST on November 22, 2019 (GMT -0500)
Yeager Airport

Weather History for KCRW - October, 2019

Change the Weather History Date:

Sunday, October 20, 2019

  Actual Average Record
Temperature  
Mean Temperature 58 °F 55 °F  
Max Temperature 66 °F 67 °F 87 °F (1920)
Min Temperature 50 °F 44 °F 23 °F (1992)
Degree Days  
Heating Degree Days 7 10  
Month to date heating degree days 107 153  
Since 1 July heating degree days 107 211  
Cooling Degree Days 0 0  
Month to date cooling degree days 61 16  
Year to date cooling degree days 1514 1089  
Growing Degree Days 10 (Base 50)    
Moisture  
Dew Point 53 °F    
Average Humidity 85    
Maximum Humidity 96    
Minimum Humidity 73    
Precipitation  
Precipitation 0.19 in 0.08 in 1.55 in (1983)
Month to date precipitation 3.48 1.66  
Year to date precipitation 37.08 36.02  
Snow  
Snow 0.00 in 0.00 in 2.80 in (1961)
Month to date snowfall 0.0 0.0  
Since 1 September snowfall 0.0 0.0  
Snow Depth 0.00 in    
Sea Level Pressure  
Sea Level Pressure 29.90 in    
Wind  
Wind Speed 1 mph (SE)    
Max Wind Speed 7 mph    
Max Gust Speed 9 mph    
Visibility 8 miles    
Events Rain    
T = Trace of Precipitation, MM = Missing Value Source: NWS Daily Summary

Daily Weather History Graph

Daily Weather History Graph

Search for Another Location

Airport or City:

Astronomy

Oct. 20, 2019 Rise Set
Actual Time 7:39 AM EDT 6:41 PM EDT
Civil Twilight 7:13 AM EDT 7:08 PM EDT
Nautical Twilight 6:42 AM EDT 7:39 PM EDT
Astronomical Twilight 6:11 AM EDT 8:09 PM EDT
Moon 11:52 PM EDT (10/20) 2:03 PM EDT (10/20)
Length of Visible Light 11h 55m
Length of Day
11h 01m
Waning Gibbous, 59% of the Moon is Illuminated
Oct 20
Waning Gibbous
Oct 21
Last Quarter
Oct 27
New
Nov 4
First Quarter
Nov 12
Full

Hourly Weather History & Observations

Time (EDT) Temp. Dew Point Humidity Pressure Visibility Wind Dir Wind Speed Gust Speed Precip Events Conditions
12:54 AM 55.0 °F 48.0 °F 77% 29.86 in 10.0 mi Calm Calm - 0.00 in   Mostly Cloudy
1:54 AM 54.0 °F 48.9 °F 83% 29.84 in 10.0 mi East 3.5 mph - 0.01 in Rain Light Rain
2:54 AM 53.1 °F 50.0 °F 89% 29.82 in 10.0 mi NE 3.5 mph - 0.03 in Rain Light Rain
3:54 AM 53.1 °F 51.1 °F 93% 29.81 in 10.0 mi NE 3.5 mph - 0.06 in Rain Light Rain
4:36 AM 53.1 °F 51.1 °F 93% 29.83 in 10.0 mi Calm Calm - 0.01 in Rain Light Rain
4:54 AM 53.1 °F 52.0 °F 96% 29.82 in 10.0 mi Calm Calm - 0.01 in   Overcast
5:54 AM 54.0 °F 52.0 °F 93% 29.83 in 10.0 mi Calm Calm - 0.01 in Rain Light Rain
6:54 AM 54.0 °F 52.0 °F 93% 29.85 in 6.0 mi Calm Calm - 0.01 in Rain Light Rain
7:38 AM 53.1 °F 52.0 °F 96% 29.87 in 2.0 mi SE 3.5 mph - 0.04 in Rain Light Rain
7:54 AM 53.1 °F 52.0 °F 96% 29.86 in 2.0 mi SE 3.5 mph - 0.05 in Rain Light Rain
8:54 AM 54.0 °F 53.1 °F 97% 29.88 in 2.0 mi Calm Calm - 0.00 in   Overcast
9:54 AM 55.0 °F 53.1 °F 93% 29.90 in 1.5 mi Calm Calm - 0.01 in Rain Light Rain
10:54 AM 55.9 °F 53.1 °F 90% 29.90 in 1.5 mi East 3.5 mph - 0.00 in Rain Light Rain
11:54 AM 57.0 °F 53.1 °F 87% 29.92 in 6.0 mi Calm Calm - 0.00 in   Overcast
11:57 AM 57.0 °F 53.1 °F 87% 29.93 in 6.0 mi Calm Calm - N/A   Overcast
12:54 PM 59.0 °F 55.0 °F 87% 29.91 in 9.0 mi Calm Calm - N/A   Overcast
1:54 PM 62.1 °F 55.9 °F 80% 29.91 in 10.0 mi Calm Calm - N/A   Mostly Cloudy
2:43 PM 62.1 °F 55.0 °F 78% 29.90 in 10.0 mi Calm Calm - N/A   Mostly Cloudy
2:54 PM 63.0 °F 55.0 °F 75% 29.89 in 10.0 mi Calm Calm - N/A   Mostly Cloudy
3:54 PM 64.0 °F 55.0 °F 73% 29.90 in 10.0 mi South 3.5 mph - N/A   Mostly Cloudy
4:54 PM 64.0 °F 55.9 °F 75% 29.91 in 10.0 mi South 5.8 mph - N/A   Mostly Cloudy
5:24 PM 64.9 °F 55.9 °F 73% 29.93 in 10.0 mi SSE 4.6 mph - N/A   Scattered Clouds
5:54 PM 64.0 °F 55.9 °F 75% 29.92 in 10.0 mi SSE 4.6 mph - N/A   Scattered Clouds
6:54 PM 62.1 °F 55.9 °F 80% 29.93 in 10.0 mi SE 3.5 mph - N/A   Scattered Clouds
7:54 PM 57.9 °F 55.0 °F 90% 29.95 in 10.0 mi Calm Calm - N/A   Scattered Clouds
8:54 PM 57.9 °F 55.0 °F 90% 29.97 in 10.0 mi Calm Calm - N/A   Scattered Clouds
9:54 PM 55.0 °F 53.1 °F 93% 29.98 in 6.0 mi Calm Calm - N/A   Scattered Clouds
10:31 PM 54.0 °F 52.0 °F 93% 30.00 in 8.0 mi Calm Calm - N/A   Partly Cloudy
10:54 PM 53.1 °F 52.0 °F 96% 30.00 in 8.0 mi Calm Calm - N/A   Partly Cloudy
11:54 PM 51.1 °F 50.0 °F 96% 30.01 in 6.0 mi Calm Calm - N/A   Mist